www.pogodaiklimat.ru

Погода и климат >> Архив погоды >> Мадагаскар >> Туамасина


ПОГОДА в Туамасине

  • Прогноз погоды в Туамасине
  • Монитор погоды в Туамасине

АРХИВ ПОГОДЫ в Туамасине

Время (UTC), дата Ветер
(напр.,м/с)
 
Видим.   Явления Облачность Т
(С)
Тd
(С)
f
(%)
Тe
(С)
Тes
(С)
Комфортность P
(гПа)
Po
(гПа)
Тmin
(С)
Tmax
(С)
R
(мм)
R24
(мм)
S
(см)
18 14.03 штиль 0 20 км в посл. час дождь 6/6 500 м
[Cu Sc]
+24.0 +23.4 96 +32 +32 очень
душно
1015.5 1014.9 +29.6 34
21 14.03 штиль 0 20 км 6/6 500 м
[Cu Sc]
+23.5 +22.8 96 +31 +31 очень
душно
1014.6 1014.0 0.9
00 15.03 штиль 0 20 км {дождь} 6/6 500 м
[Cu Sc]
+22.5 +21.8 96 +30 +30 очень
душно
1013.0 1012.4 0.9
03 15.03 штиль 0 30 км 8/6 500 м
[Cu Sc Ac trans]
+22.5 +21.9 96 +30 +30 очень
душно
1013.8 1013.1 2
06 15.03 З 6 30 км 9/4 500 м
[Cu Sc Ac trans Ci sp]
+28.5 +22.7 71 +38 +39 очень
душно
1014.2 1013.6 +22.0 +29.6 34
09 15.03 Ю 4 30 км 9/5 500 м
[Cu Sc Ac trans Ci sp]
+30.3 +24.8 72 +43 +47 опасность
перегрева
1012.9 1012.3
12 15.03 Ю 6 15 км осадки на расстоянии 9/6 210 м
[Cu Sc Ac trans Ci sp]
+29.4 +23.8 72 +40 +41 очень
душно
1011.4 1010.8
15 15.03 Ю 2 15 км осадки на расстоянии 6/4 210 м
[Cu Sc Ac trans]
+27.0 +23.8 83 +37 +37 очень
душно
1012.2 1011.5 +30.6
18 15.03 штиль 0 20 км осадки на расстоянии 8/8 500 м
[Cu Sc]
+25.2 +24.2 94 +35 +35 очень
душно
1014.3 1013.6 +30.6
21 15.03 штиль 0 20 км осадки на расстоянии 5/5 500 м
[Cu Sc]
+24.0 +23.3 96 +32 +32 очень
душно
1013.9 1013.2
00 16.03 штиль 0 25 км 6/6 500 м
[Cu Sc]
+23.4 +22.7 96 +33 +33 очень
душно
1012.5 1011.8
03 16.03 ЮВ 2 20 км осадки на расстоянии 9/9 210 м
[Cu Sc]
+23.7 +22.2 91 +31 +31 очень
душно
1012.9 1012.2
06 16.03 З 2 30 км 6/4 500 м
[Cu Sc Ac trans Ci sp]
+27.8 +23.0 75 +37 +43 очень
душно
1014.5 1013.9 +23.2 +30.6
09 16.03 ЮВ 4 35 км 8/4 500 м
[Cu Sc Ac trans Ci sp]
+30.3 +21.8 60 +39 +44 очень
душно
1012.3 1011.7
12 16.03 ЮВ 5 35 км 5/3 500 м
[Cu Sc Ci sp]
+30.0 +23.1 67 +40 +43 очень
душно
1010.5 1009.8
15 16.03 штиль 0 30 км 3/1 500 м
[Cu Sc Ci sp]
+28.0 +22.9 74 +37 +37 очень
душно
1011.1 1010.4 +30.4
18 16.03 штиль 0 25 км 8/8 500 м
[Cu Sc]
+25.4 +23.1 87 +34 +34 очень
душно
1013.4 1012.8 +31.4
21 16.03 штиль 0 25 км 8/8 500 м
[Cu Sc]
+23.8 +22.3 91 +31 +31 очень
душно
1013.4 1012.8
00 17.03 штиль 0 25 км 6/6 500 м
[Cu Sc]
+23.5 +22.7 95 +31 +31 очень
душно
1012.2 1011.5
03 17.03 штиль 0 25 км 4/3 500 м
[Cu Sc Ci sp]
+23.3 +22.3 94 +32 +32 очень
душно
1012.6 1011.9
06 17.03 ЮЗ 2 35 км 6/5 500 м
[Cu Sc Ci sp]
+28.8 +23.3 72 +39 +44 очень
душно
1013.9 1013.3 +22.7 +31.4
09 17.03 ЮВ 4 35 км 4/4 500 м
[Cu med, cong Ci sp]
+30.4 +23.0 65 +41 +48 опасность
перегрева
1012.6 1012.0
12 17.03 ЮВ 4 35 км 4/1 500 м
[Cu med, cong Ci sp]
+30.8 +22.9 63 +41 +46 опасность
перегрева
1011.2 1010.5
15 17.03 ЮВ 2 30 км 4/1 500 м
[Cu med, cong Ci sp]
+28.3 +23.1 73 +38 +38 очень
душно
1012.3 1011.6 +31.2
18 17.03 штиль 0 25 км 5/3 500 м
[Cu Sc Ci sp]
+24.7 +23.2 91 +33 +33 очень
душно
1013.9 1013.3 +31.2
21 17.03 штиль 0 25 км 4/1 500 м
[Cu Sc Ci sp]
+23.0 +22.1 95 +31 +31 очень
душно
1014.1 1013.5
00 18.03 штиль 0 25 км 3/1 500 м
[Cu Sc Ci sp]
+22.1 +21.3 95 +29 +29 очень
душно
1012.8 1012.1
03 18.03 штиль 0 30 км 1/1 500 м
[Cu Sc Ci sp]
+21.5 +21.2 98 +27 +27 душно 1013.2 1012.5
06 18.03 З 2 40 км 4/4 500 м
[Cu Sc]
+29.3 +22.9 68 +39 +46 очень
душно
1014.2 1013.6 +21.3 +31.2
09 18.03 В 4 35 км 4/3 500 м
[Cu med, cong Ci sp]
+30.8 +23.5 65 +42 +50 опасность
перегрева
1013.6 1012.9
12 18.03 ЮВ 4 35 км 8/1 500 м
[Cu Sc Ci sp]
+30.8 +24.0 67 +42 +47 опасность
перегрева
1011.6 1010.9
15 18.03 ЮВ 1 30 км 5/1 500 м
[Cu Sc Ci sp]
+28.3 +24.0 78 +39 +39 очень
душно
1012.4 1011.8 +31.8
18 18.03 штиль 0 25 км 5/4 500 м
[Cu Sc Ci sp]
+24.7 +23.7 94 +34 +34 очень
душно
1014.8 1014.2 +31.8
21 18.03 штиль 0 25 км 8/3 500 м
[Cu Sc Ci sp]
+23.2 +22.5 96 +32 +32 очень
душно
1012.4 1011.8
00 19.03 штиль 0 25 км 5/3 500 м
[Cu Sc Ci sp]
+22.4 +21.8 96 +30 +30 очень
душно
1012.6 1012.0
03 19.03 штиль 0 30 км 5/1 500 м
[Cu Sc Ci sp]
+22.2 +21.6 96 +29 +29 очень
душно
1012.3 1011.7
06 19.03 ЮЗ 2 35 км 5/1 500 м
[Cu Sc Ci sp]
+28.6 +24.5 79 +41 +50 опасность
перегрева
1013.3 1012.7 +22.0 +31.8
09 19.03 ЮВ 4 35 км 8/4 500 м
[Cu Sc Ac trans Ci sp]
+31.8 +24.8 67 +45 +50 опасность
перегрева
1011.6 1011.0
12 19.03 ЮВ 5 30 км 4/3 500 м
[Cu Sc Ac trans Ci sp]
+31.0 +25.3 72 +45 +48 опасность
перегрева
1010.0 1009.3
15 19.03 ЮВ 1 25 км 5/5 500 м
[Cb cap Ci sp]
+29.0 +25.4 81 +43 +43 опасность
перегрева
1011.1 1010.4 +32.0
18 19.03 ЮВ 3 15 км осадки на расстоянии 8/8 500 м
[Cu Sc Ci sp]
+28.6 +25.8 85 +43 +43 опасность
перегрева
1012.9 1012.3 +32.0
21 19.03 З 1 15 км осадки на расстоянии 9/9 500 м
[Cu Sc]
+26.1 +25.0 94 +37 +37 очень
душно
1012.8 1012.2
00 20.03 штиль 0 15 км осадки на расстоянии 6/6 500 м
[Cu Sc Ci sp]
+24.0 +23.3 96 +32 +32 очень
душно
1010.9 1010.3
03 20.03 Ю 2 15 км осадки на расстоянии 8/6 500 м
[Cu Sc Ac trans Ci sp]
+24.8 +24.1 96 +34 +34 очень
душно
1011.4 1010.8
06 20.03 ЮЗ 1 30 км 6/5 500 м
[Cu Sc Ac trans Ci sp]
+29.5 +24.5 75 +42 +48 опасность
перегрева
1012.3 1011.7 +23.7 +32.0
09 20.03 ЮВ 3 30 км 5/4 500 м
[Cu Sc Ac trans Ci sp]
+31.0 +25.0 70 +44 +53 опасность
перегрева
1011.0 1010.4
12 20.03 ЮВ 4 30 км 5/4 500 м
[Cb cap Ci sp]
+31.0 +24.7 69 +44 +47 опасность
перегрева
1009.2 1008.6
15 20.03 штиль 0 20 км осадки на расстоянии 8/4 500 м
[Cb cap Ci sp]
+28.6 +25.5 83 +42 +42 опасность
перегрева
1009.4 1008.8 +31.7
18 20.03 штиль 0 20 км 8/5 500 м
[Cb cap Ci sp]
+26.4 +25.4 94 +38 +38 очень
душно
1012.0 1011.3 +31.7
21 20.03 штиль 0 20 км 8/6 500 м
[Cu Sc Ci sp]
+25.5 +24.8 96 +36 +36 очень
душно
1011.4 1010.8
00 21.03 штиль 0 20 км 8/6 500 м
[Cu Sc Ci sp]
+25.0 +24.6 98 +35 +35 очень
душно
1010.1 1009.5
03 21.03 З 2 8000 м слаб. дождь 8/6 500 м
[Cu Sc Ac trans Ci sp]
+24.5 +23.5 94 +33 +33 очень
душно
1010.9 1010.2 0.0
06 21.03 Ю 2 20 км осадки на расстоянии 6/6 500 м
[Cb cap Ac trans]
+28.0 +25.2 85 +41 +45 опасность
перегрева
1012.4 1011.7 +24.2 +31.7 1
09 21.03 ЮВ 3 30 км 6/6 500 м
[Cb cap Ci sp]
+31.5 +24.4 66 +44 +50 опасность
перегрева
1011.4 1010.7 0.3
12 21.03 В 3 20 км осадки на расстоянии 8/5 500 м
[Cb cap Ac trans Ci sp]
+31.3 +25.9 73 +47 +49 опасность
перегрева
1009.9 1009.2
15 21.03 штиль 0 15 км зарница 9/5 210 м
[Cb cap Ac trans Ci ing]
+28.5 +25.0 81 +41 +41 опасность
перегрева
1010.8 1010.1 +32.0

 

Местоположение метеостанции Туамасина (Мадагаскар): широта -18.11 долгота 49.40 высота над уровнем моря 6 м.

В архиве по умолчанию представлена погода в Туамасине за последнюю неделю. Архивные данные за месяц целиком и за предыдущие месяцы, начиная с января 2011 года, Вы можете получить, выбрав интересующий диапазон дат из раскрывающегося списка и нажав кнопку "Ввод!".


*Определитесь, кто Вы:
робот инопланетянин человек

Внимание! Время в таблицах - всемирное. Для получения местного времени необходимо прибавить поправку, которая равна 3 ч.

Смотрите также архив погоды в соседних городах и на ближайших метеорологических станциях:

Погода в Амбоайтзилаозане (Мадагаскар) (109 км)
Погода на Нуси Бураха (Мадагаскар) (123 км)
Погода в Мааноро (Мадагаскар) (201 км)
Погода в Антананариву аэропорт (Мадагаскар) (217 км)
Погода в Антананариву (Мадагаскар) (218 км)
Погода в Анцирабе (Мадагаскар) (310 км)
Погода в Анталахе (Мадагаскар) (371 км)
Погода в Анцухихи (Мадагаскар) (390 км)
Погода в Манандзари (Мадагаскар) (403 км)
Погода в Махадзанге (Мадагаскар) (424 км)

Пояснения к столбцам:

Ветер - указаны скорость ветра в м/с - средняя за 10 мин, порывы в срок и между сроками (в фигурных скобках) и направление, откуда дует ветер: С - северный, СВ - северо-восточный, В - восточный, ЮВ - юго-восточный, Ю - южный, ЮЗ - юго-западный, З - западный, СЗ - северо-западный.
Видимость - горизонтальная дальность видимости в метрах или километрах. При видимости от 1 до 10 км при отсутствии осадков обычно наблюдается дымка, при ухудшении видимости до 1 км и менее - туман. В сухую погоду видимость может ухудшаться дымом, пылью или мглою.
Явления - указаны атмосферные явления, наблюдавшиеся в срок или в последний час перед сроком; фигурными скобками обозначены явления, наблюдавшиеся между сроками (за 1-3 часа до срока); квадратными скобками обозначены град или гололедные отложения с указанием их диаметра в мм.
Облачность - указаны через наклонную черту общая и нижняя облачность в баллах и высота нижней границы облаков в метрах; квадратными скобками обозначены формы облаков: Ci - перистые, Cs - перисто-слоистые, Cc - перисто-кучевые, Ac - высококучевые, As - высокослоистые, Sc - слоисто-кучевые, Ns - слоисто-дождевые, Cu - кучевые, Cb - кучево-дождевые. Подробнее классификацию облаков см. в Атласе облаков (PDF).
T - Температура воздуха - температура, измеренная на высоте 2 м над землей.
Td - Температура точки росы - температура, при понижении до которой содержащийся в воздухе водяной пар достигнет насыщения.
f - Относительная влажность воздуха - влажноcть воздуха, измеренная на высоте 2 м над землей.
Te - Эффективная температура - температура, которую ощущает одетый по сезону человек в тени. Характеристика душности погоды. При расчете учитывается влияние влажности воздуха и скорости ветра на теплоощущения человека.
Tes - Эффективная температура на солнце - температура, которую ощущает человек, с поправкой на солнечный нагрев. Характеристика знойности погоды. Зависит от высоты солнца над горизонтом, облачности и скорости ветра. Ночью, в пасмурную погоду, а также при ветре 12 м/с и более поправка равна нулю.
P - Атмосферное давление - приведенное к уровню моря атмосферное давление.
Po - Атмосферное давление - измеренное на уровне метеостанции атмосферное давление.
Tmin - Минимальная температура - минимум температуры воздуха на высоте 2 м над землей.
Tmax - Максимальная температура - максимум температуры воздуха на высоте 2 м над землей.
R - Количество осадков - Количество выпавших осадков за период времени, мм. При наведении курсора мыши на число - период времени, за который выпало указанное количество осадков.
R24 - Количество осадков - Количество выпавших осадков за 24 часа, мм.
S - Снежный покров - Высота снежного покрова, см. При наведении курсора мыши на число - состояние снежного покрова и степень покрытия местности в баллах.